This demonstration page uses our WeatherBlox Daily Observations layout. Learn more.

Left ArrowRight Arrow

41.86663, -103.66717

Hourly Observations for June 19, 2020

Temp ( °F °C ) Dew Point ( °F °C ) Humidity (%) Winds ( mph kmh ) Pressure ( in mb ) Visibility ( mi km ) Precip ( " mm )
12:53 am 00:53 Mostly Cloudy 61 16.1 40 4.4 46 46 E 9 15 30.03 1017 10 16 0.00 0.00
1:53 am 01:53 Mostly Cloudy 60 15.6 43 6.1 53 53 E 6 9 30.03 1017 10 16 0.00 0.00
2:53 am 02:53 Cloudy 61 16.1 47 8.3 60 60 ESE 15 24 30.02 1017 10 16 0.00 0.00
3:53 am 03:53 Clear 58 14.4 48 8.9 70 70 ESE 8 13 30.01 1016 10 16 0.00 0.00
4:53 am 04:53 Cloudy 59 15 50 10 72 72 undefined N/A 30.04 1017 10 16 0.00 0.00
5:53 am 05:53 Cloudy with Light Rain 59 15 50 10 72 72 SE 7 11 30.06 1018 10 16 0.00 0.00
6:53 am 06:53 Cloudy 57 13.9 51 10.6 81 81 E 6 9 30.07 1018 10 16 0.00 0.00
7:53 am 07:53 Cloudy 57 13.9 53 11.7 87 87 ESE 12 19 30.07 1018 10 16 0.00 0.00
8:53 am 08:53 Cloudy 58 14.4 54 12.2 87 87 SE 10 17 30.08 1019 10 16 0.00 0.00
9:53 am 09:53 Mostly Cloudy 64 17.8 52 11.1 65 65 SSE 15 24 30.06 1018 10 16 0.00 0.00
10:53 am 10:53 Partly Cloudy 63 17.2 51 10.6 65 65 SSE 14 22 30.06 1018 10 16 0.00 0.00
11:39 am 11:39 Mostly Cloudy 65 18.3 52 11.1 63 63 ESE 18 30 29.97 1015 10 16 0.00 0.00
11:53 am 11:53 Mostly Cloudy 67 19.4 52 11.1 59 59 SE 17 28 30.05 1018 10 16 0.00 0.00
12:53 pm 12:53 Partly Cloudy 67 19.4 48 8.9 51 51 SSE 18 30 30.01 1016 10 16 0.00 0.00
1:53 pm 13:53 Partly Cloudy 73 22.8 50 10 44 44 SE 18 30 29.97 1015 10 16 0.00 0.00
2:53 pm 14:53 Cloudy 72 22.2 50 10 46 46 SE 15 24 29.96 1015 10 16 0.00 0.00
3:53 pm 15:53 Mostly Cloudy 72 22.2 47 8.3 41 41 SSE 16 26 29.95 1014 10 16 0.00 0.00
4:53 pm 16:53 Cloudy with Light Rain 61 16.1 56 13.3 84 84 S 7 11 29.99 1016 7 11 0.06 1.52
5:53 pm 17:53 Mostly Cloudy 67 19.4 52 11.1 59 59 Calm 29.96 1015 10 16 0.02 0.51
6:53 pm 18:53 Mostly Cloudy 66 18.9 53 11.7 63 63 N 5 7 29.96 1014 10 16 0.00 0.00
7:53 pm 19:53 Mostly Sunny 61 16.1 53 11.7 75 75 NE 10 17 29.97 1015 10 16 0.00 0.00
8:53 pm 20:53 Clear 58 14.4 53 11.7 84 84 ENE 12 19 29.97 1015 10 16 0.00 0.00
9:53 pm 21:53 Clear 56 13.3 52 11.1 87 87 E 9 15 29.99 1016 10 16 0.00 0.00
10:53 pm 22:53 Clear 55 12.8 51 10.6 87 87 ESE 7 11 29.98 1015 10 16 0.00 0.00
11:53 pm 23:53 Clear 53 11.7 51 10.6 93 93 SSE 7 11 29.98 1015 10 16 0.00 0.00

Powered by AerisWeather